GFSCGP_250_spd_000.txt.gz
Wind_Speed
58 52 49 56 61 63 63 66 64 63 60 66 66 64 64 62 66 52 48 49 50 44 42 45 44 42 41 42 44 39 33 30 28 23 16 10 12 11 12 16 19 24 25 19
58 53 67 69 65 63 61 65 67 62 57 63 61 57 55 52 44 43 43 43 41 38 39 40 37 35 37 41 37 30 27 28 22 14 10 11 12 15 17 15 18 18 19 20
57 67 68 66 66 69 63 60 59 57 59 59 56 54 49 39 36 38 37 41 36 35 33 34 33 33 37 36 28 25 25 25 16 7 9 7 8 11 16 16 19 17 20 19
67 70 67 66 64 63 62 58 54 53 55 57 58 40 35 31 33 32 35 34 36 31 33 34 33 35 35 29 23 24 24 19 9 5 9 5 7 9 12 16 21 21 15 19
67 71 72 66 61 62 57 62 55 56 56 58 48 31 27 23 24 27 28 30 33 32 31 31 33 32 27 22 20 22 22 14 6 4 7 9 9 9 13 15 17 21 17 16
70 70 68 64 64 63 62 62 59 58 51 39 31 26 22 23 24 26 28 29 29 30 30 31 30 25 19 19 19 20 17 11 2 1 10 14 15 14 11 16 20 22 20 12
70 67 67 68 67 63 65 61 57 45 34 28 28 20 20 27 29 32 33 31 26 28 29 26 25 18 17 17 19 18 13 7 2 4 14 15 13 12 14 18 21 20 14 14
70 69 66 66 63 61 56 50 37 33 29 25 20 17 19 27 31 33 34 32 29 27 26 24 21 16 14 17 17 15 10 5 6 8 14 16 14 15 20 16 23 26 14 11
69 63 63 59 51 48 39 30 34 29 28 20 19 17 19 25 30 34 35 33 28 26 27 24 17 14 12 17 16 12 9 2 7 10 15 14 13 11 18 19 20 22 19 12
56 55 52 50 48 40 32 33 29 29 26 18 19 21 22 29 30 32 32 32 29 27 26 24 13 11 13 18 14 9 5 0 8 11 18 12 19 15 11 16 24 22 13 8
55 55 48 49 33 32 32 31 30 31 21 22 18 21 25 26 27 32 33 35 31 28 25 20 12 10 13 18 12 8 4 4 7 11 14 14 15 11 10 12 21 25 16 6
56 52 54 40 36 40 42 36 32 23 22 20 20 25 25 29 28 31 32 33 31 27 26 23 13 10 13 17 10 8 4 5 7 13 15 17 11 11 11 13 16 22 20 11
59 59 52 49 44 43 35 34 27 27 26 22 26 26 23 28 27 28 28 31 33 26 26 26 16 9 12 14 8 7 5 4 6 16 15 14 10 13 15 13 10 14 25 16
69 63 51 48 45 42 41 33 33 34 30 26 28 29 24 26 27 28 28 29 32 29 26 25 17 9 11 13 10 7 6 2 4 18 18 16 14 15 17 13 8 9 17 23
75 68 50 50 51 46 45 43 36 33 27 23 33 29 28 26 27 27 28 27 30 31 26 24 19 13 11 13 13 8 6 2 4 13 20 15 16 18 20 11 13 14 13 19
84 70 60 55 52 47 45 42 40 36 29 32 35 29 29 28 30 23 28 28 29 31 27 23 20 16 11 12 11 10 7 3 2 7 23 21 18 18 20 16 8 6 14 20
83 72 67 58 55 53 46 44 41 38 37 34 33 34 28 29 33 31 28 26 28 30 27 21 22 21 14 13 8 10 8 6 2 4 11 24 22 15 19 17 10 6 6 12
82 75 75 66 66 56 46 45 44 42 40 37 35 36 31 30 30 33 28 26 26 28 28 29 20 24 19 14 9 9 8 7 2 1 5 21 24 21 15 15 14 12 7 2
82 75 80 74 66 61 57 51 52 49 44 40 40 38 35 29 30 35 28 26 27 24 27 30 27 20 20 16 9 6 9 7 5 1 3 12 25 22 23 18 19 19 17 11
85 81 85 82 75 66 60 59 57 53 48 44 44 40 40 33 31 38 28 27 27 24 25 27 30 20 21 18 17 9 6 8 6 3 2 4 12 19 20 21 20 20 18 15
91 89 90 85 80 77 70 65 64 55 51 51 46 45 45 35 35 37 30 33 25 27 25 26 29 25 20 20 19 19 8 5 8 6 3 3 7 10 13 12 14 20 17 17
99 93 93 89 87 84 74 72 69 61 60 55 50 48 48 39 40 38 34 34 28 26 25 23 24 25 25 22 20 18 16 9 6 8 7 5 4 9 10 9 10 12 14 15
101 101 97 92 88 85 81 77 79 70 67 62 56 50 50 46 43 40 39 36 30 28 25 23 23 26 26 23 19 20 15 15 9 6 8 9 9 7 7 10 13 12 12 12
105 97 94 104 97 93 85 80 79 74 70 66 59 55 54 52 48 45 43 38 33 29 27 24 23 22 28 25 20 21 18 15 15 11 8 10 10 11 10 10 10 9 13 15
109 111 108 89 99 96 89 85 84 81 73 69 65 59 61 60 52 47 43 40 35 33 29 26 25 22 22 25 25 22 21 20 15 16 15 13 12 10 11 13 11 11 11 12
124 110 105 99 101 97 92 91 84 82 76 70 67 64 64 63 57 50 44 43 39 37 32 28 27 25 24 24 23 24 24 24 22 19 19 19 17 15 13 10 9 8 9 11

GFSCGP_250_spd_006.txt.gz
Wind_Speed
75 67 58 67 70 70 64 58 57 61 61 60 50 41 45 48 51 56 57 66 70 66 72 61 54 53 53 50 48 43 40 41 37 31 32 30 27 26 26 24 28 27 31 33
81 65 68 70 69 64 59 57 60 62 60 53 40 44 47 52 56 60 63 63 64 70 60 55 54 51 50 47 44 39 38 35 28 30 29 25 24 24 23 24 24 25 31 31
75 72 73 71 67 63 58 57 58 53 47 38 41 47 52 55 59 60 56 58 61 48 50 51 50 46 45 42 38 36 35 28 27 28 24 20 20 23 23 20 21 27 32 26
65 70 70 71 64 61 59 53 49 39 41 48 48 55 55 54 54 54 54 43 41 45 43 45 43 41 39 35 34 32 27 26 27 23 19 17 19 20 21 24 22 26 29 21
50 52 49 61 47 55 45 53 46 43 51 54 55 55 55 53 52 51 42 38 38 34 38 41 34 35 33 30 29 24 24 25 22 19 14 12 13 13 15 17 24 29 26 24
52 56 56 47 48 41 49 41 43 45 45 48 49 51 55 51 48 46 41 31 29 31 34 35 33 31 28 24 21 23 24 25 19 14 9 9 7 11 17 22 31 34 26 21
55 54 50 52 51 50 51 44 44 49 49 54 53 45 51 44 41 42 31 28 23 27 31 28 27 26 22 19 21 24 24 21 14 8 4 5 6 15 18 24 32 34 22 18
61 61 55 57 53 57 53 54 52 53 54 53 47 41 46 37 40 28 29 20 19 25 25 24 25 22 18 20 22 22 22 16 9 5 7 5 8 16 16 24 31 28 20 17
61 59 64 60 65 65 61 52 53 54 51 48 48 50 43 34 29 25 21 16 19 23 27 23 23 18 18 19 21 20 19 13 9 7 9 2 8 13 17 25 32 25 18 17
72 70 69 74 71 64 57 59 56 48 43 46 51 45 36 26 21 20 15 16 17 20 25 22 22 16 17 17 19 18 19 13 8 6 9 3 9 13 14 24 33 23 17 15
76 75 77 76 63 58 60 57 54 51 45 41 42 32 27 25 20 16 15 14 16 18 24 22 21 15 15 14 18 17 18 13 8 5 8 8 11 16 16 22 29 22 15 16
66 76 82 69 66 69 68 63 56 55 43 47 44 28 30 23 22 12 10 11 15 18 24 22 20 13 16 15 17 18 17 14 8 8 12 4 5 14 19 23 27 16 15 16
77 68 74 77 76 73 68 54 47 45 46 33 24 34 26 24 19 11 7 8 14 17 20 24 19 15 16 16 17 18 15 14 9 8 15 6 5 11 19 21 28 15 13 10
76 69 62 57 55 56 50 44 35 31 30 31 35 31 25 24 16 9 6 6 15 14 20 23 23 16 19 17 16 15 15 14 8 8 17 9 6 7 15 18 23 18 8 10
78 70 60 56 54 50 45 38 32 33 34 33 39 28 25 23 15 10 4 7 12 17 19 23 24 21 18 16 16 15 15 17 7 8 18 12 10 5 7 14 22 25 10 8
80 67 64 61 56 48 40 37 31 36 35 40 38 29 27 22 14 10 5 5 12 15 19 20 23 26 19 18 17 16 15 17 9 3 15 15 14 9 3 6 14 21 22 10
79 73 69 59 57 53 42 36 32 33 33 36 33 35 32 22 14 9 6 6 10 14 18 19 20 26 23 18 16 17 17 15 13 6 9 16 14 14 9 4 9 9 18 20
79 75 68 61 63 54 38 39 36 35 37 39 39 40 34 25 17 10 8 9 10 12 15 19 20 22 26 21 15 14 15 15 13 12 4 12 16 15 11 9 8 6 7 14
81 79 72 69 62 52 48 41 38 35 36 37 40 41 36 29 21 16 11 10 11 11 14 17 18 20 23 24 15 14 11 12 12 12 10 8 17 16 14 15 15 11 6 8
89 83 81 72 69 56 52 53 49 47 40 40 43 46 41 33 25 23 14 11 13 9 12 15 16 18 20 21 18 13 11 10 11 9 10 6 2 17 17 15 12 12 11 10
94 93 84 78 75 68 68 62 59 51 42 49 49 52 47 37 33 28 16 13 16 10 12 13 14 16 18 18 20 14 12 10 9 8 5 6 4 2 9 18 17 17 15 14
97 94 88 84 82 78 74 69 70 59 56 52 53 54 50 44 38 29 21 16 18 11 10 11 14 14 16 18 17 19 12 11 6 7 5 4 4 3 3 4 8 11 10 13
99 97 92 89 85 81 79 75 67 64 61 54 46 52 51 48 39 32 24 21 19 19 13 10 13 13 14 17 17 16 17 10 6 4 5 5 4 4 4 4 6 4 4 6
101 100 98 92 89 85 82 75 69 67 62 56 51 47 49 46 42 35 26 21 20 20 15 17 13 13 14 16 17 17 15 15 10 7 5 6 7 6 6 7 6 7 9 10
98 99 98 95 90 86 82 78 75 69 63 58 54 52 49 47 46 39 32 26 23 23 20 20 16 15 15 16 17 18 16 15 14 10 8 7 7 7 9 8 9 11 10 10
97 94 99 97 95 89 85 82 80 72 63 62 59 56 54 54 52 46 34 29 26 26 24 22 20 17 18 17 18 20 18 15 15 13 12 11 11 12 13 12 10 10 12 15

GFSCGP_250_spd_009.txt.gz
Wind_Speed
87 87 75 73 72 70 70 65 62 73 71 63 62 57 60 58 58 54 55 51 57 62 66 67 73 77 59 57 53 48 46 43 39 35 34 34 33 29 27 28 28 28 34 36
87 75 78 79 80 77 73 65 61 66 69 58 57 55 56 53 50 45 48 52 57 62 67 75 75 61 56 56 47 44 41 36 33 29 33 31 29 29 26 26 29 32 35 36
78 70 83 79 80 74 71 65 63 65 64 53 56 55 55 49 41 46 50 53 59 63 69 71 65 57 58 48 43 41 37 30 28 29 30 25 25 25 22 24 25 22 30 32
63 63 63 66 69 70 66 66 69 65 65 56 55 53 48 43 44 50 52 53 58 61 63 64 56 55 47 44 40 35 28 27 28 29 26 21 22 19 20 15 22 30 36 29
51 64 57 56 59 63 60 69 69 67 62 57 55 44 40 40 49 50 49 52 54 59 56 54 46 47 46 39 34 27 28 27 28 27 21 17 14 13 17 23 29 33 33 25
64 63 63 52 56 64 64 68 65 59 51 42 52 40 39 42 45 46 46 47 50 51 48 44 44 44 37 34 28 26 27 27 25 21 14 11 9 15 23 25 31 34 27 22
57 53 48 44 43 40 41 39 40 35 34 41 44 34 39 39 45 46 45 44 40 43 36 43 53 38 31 27 24 24 25 24 22 14 9 8 9 16 22 25 32 29 20 21
57 58 49 44 40 40 40 38 35 37 39 49 34 32 37 42 38 46 42 40 35 32 34 31 35 31 27 21 20 22 22 21 17 11 8 6 9 19 24 25 32 24 19 18
58 55 60 61 56 56 47 38 42 44 45 37 29 39 45 41 40 46 36 30 31 29 35 30 29 26 22 17 18 21 20 18 15 11 7 4 10 20 22 25 32 20 19 16
67 65 69 71 67 58 51 49 49 38 33 31 36 40 38 30 36 35 27 28 26 29 27 25 24 19 15 14 16 19 19 17 14 8 4 4 12 18 23 29 23 20 20 18
69 64 70 68 55 58 56 45 41 38 43 45 43 41 35 30 36 25 24 24 22 25 20 21 17 13 13 12 14 18 19 16 14 7 4 3 10 19 23 30 21 21 22 20
73 70 68 65 62 64 58 55 52 51 46 45 45 38 30 34 33 25 20 18 19 19 13 18 14 13 12 10 13 17 18 15 14 7 6 5 10 15 23 30 19 20 24 22
79 70 70 62 64 59 53 54 51 50 46 42 42 37 32 29 30 23 17 16 16 12 11 15 18 12 12 9 13 14 16 16 13 6 11 6 6 13 22 31 23 17 20 23
79 72 66 53 47 58 57 50 49 50 47 42 42 43 35 31 28 25 19 16 11 8 9 14 18 11 10 9 13 14 16 16 13 4 13 9 2 9 17 26 30 16 19 19
80 73 70 62 58 52 51 56 57 52 43 42 39 31 33 32 29 26 20 14 8 5 9 12 17 16 11 9 13 15 15 16 13 8 10 8 6 1 9 18 28 25 15 16
83 78 72 67 62 55 47 44 44 47 49 44 42 34 32 32 29 26 19 13 7 3 8 12 13 19 12 9 11 15 15 15 13 10 2 10 7 5 4 10 17 25 22 15
87 82 76 69 63 60 53 35 28 33 33 33 33 36 36 34 31 25 20 15 7 2 7 10 14 15 16 10 9 9 11 13 14 10 5 5 8 9 11 8 9 12 20 22
90 86 77 73 69 63 40 39 32 31 35 33 35 34 39 35 32 24 22 18 7 1 5 9 14 15 16 14 11 10 8 11 12 13 9 3 9 7 8 7 8 11 13 19
91 85 78 75 71 55 49 49 41 36 36 38 39 41 45 39 32 26 26 21 9 1 3 7 10 14 17 18 14 11 9 9 12 12 13 12 2 10 7 9 10 12 10 10
92 87 83 79 74 60 59 55 48 46 46 46 43 43 47 41 34 33 27 19 13 5 2 5 8 10 15 17 19 12 11 8 8 10 11 11 8 4 9 8 9 7 9 10
95 90 84 83 78 69 65 62 59 53 48 44 43 41 43 42 44 38 25 20 17 10 5 4 5 8 12 15 16 18 11 12 7 8 8 9 9 7 3 5 7 10 11 12
99 94 90 87 84 75 71 67 65 57 54 47 42 42 39 45 45 34 29 23 22 13 7 6 4 7 9 12 14 16 16 11 8 6 8 8 7 7 7 5 3 2 2 1
99 99 94 92 86 78 74 71 63 59 56 50 45 44 44 42 42 39 34 27 26 17 8 6 9 5 8 9 11 14 15 13 10 6 5 6 8 7 5 6 6 6 3 3
99 99 97 91 88 82 78 74 68 63 58 55 52 47 45 44 44 41 35 30 28 24 15 7 10 11 8 9 9 11 12 14 12 8 5 4 4 6 8 8 6 5 6 6
97 97 97 95 91 87 81 78 73 67 62 59 54 50 46 46 44 44 40 34 29 27 21 14 12 13 12 11 9 11 10 12 13 12 8 5 5 3 4 7 7 6 6 7
95 97 98 97 94 88 83 77 73 70 66 63 58 55 49 47 46 45 43 40 35 31 27 18 14 15 15 14 13 11 11 10 10 10 11 9 5 6 7 6 3 5 6 9

GFSCGP_250_spd_015.txt.gz
Wind_Speed
86 91 80 75 80 83 86 85 85 83 80 83 76 70 63 69 67 65 64 60 58 56 58 56 57 57 62 59 52 58 56 55 56 58 52 46 41 38 33 28 22 20 21 25
98 85 67 78 81 81 82 80 76 78 76 73 80 73 64 64 62 58 59 59 55 55 55 54 55 60 57 50 50 57 53 55 59 53 49 44 39 35 27 21 18 23 25 29
83 59 79 84 82 78 74 68 70 75 78 79 76 67 59 60 61 54 57 57 53 56 52 53 55 54 49 46 51 51 54 57 53 49 45 40 35 26 21 19 23 24 28 33
85 68 76 75 68 65 63 71 73 72 71 66 71 54 56 63 59 55 57 56 54 51 51 51 51 43 42 46 48 49 53 53 51 44 39 36 26 22 18 23 27 30 34 37
73 70 63 64 57 64 65 75 73 70 63 61 56 43 58 60 56 58 54 51 52 50 50 45 38 39 40 44 44 49 50 51 46 39 36 29 23 18 20 25 31 36 35 30
87 80 78 64 70 71 73 69 63 59 55 50 49 38 54 60 56 53 51 53 50 48 40 31 35 37 40 40 42 46 49 49 39 35 32 24 19 17 23 30 31 27 25 24
96 82 75 67 64 63 58 52 52 51 45 37 41 36 58 59 48 45 49 47 44 39 27 31 32 36 38 38 42 45 48 39 34 33 27 19 14 18 27 27 25 27 23 17
101 87 71 65 60 59 55 55 51 47 41 35 38 32 55 45 35 40 42 39 29 21 26 28 31 35 35 39 41 44 40 35 32 30 22 12 12 21 26 20 24 23 17 9
105 95 81 73 68 65 59 49 50 38 32 32 33 39 49 34 33 37 32 19 18 22 24 26 31 31 35 37 41 37 36 31 29 24 15 7 13 24 23 18 21 23 13 11
110 98 83 78 74 69 59 54 38 29 24 31 35 43 43 28 28 23 18 17 21 24 25 30 27 32 33 38 37 37 31 29 24 20 8 4 15 27 19 17 24 22 15 14
110 99 91 85 70 61 53 41 33 27 27 38 39 38 42 30 22 15 15 19 24 22 25 24 25 30 33 34 34 29 28 24 20 15 3 5 17 27 18 16 23 21 17 16
112 102 95 76 71 65 59 47 36 30 37 41 43 36 29 18 15 18 19 20 18 23 21 19 25 28 30 31 29 25 24 22 16 10 5 7 18 24 22 17 22 22 18 17
114 110 94 91 81 68 52 42 37 30 35 37 35 39 22 19 23 21 23 19 17 19 17 19 21 27 24 28 24 23 22 19 12 5 9 7 14 16 28 21 17 18 21 16
111 107 93 84 71 61 52 45 40 29 33 36 31 36 22 26 28 23 20 17 18 18 15 17 20 23 21 25 22 20 19 16 8 3 10 6 7 11 20 26 18 17 21 21
110 102 92 87 75 63 54 49 44 36 32 32 37 30 33 31 24 22 18 17 19 15 15 13 17 18 18 20 18 17 15 14 8 4 11 6 4 5 13 19 25 17 14 18
107 101 91 88 74 64 58 51 44 39 42 40 42 33 32 29 29 26 20 22 21 15 12 12 13 14 14 17 16 14 12 12 9 2 10 9 5 1 6 14 20 23 19 16
105 97 90 88 71 67 59 53 46 43 43 45 39 41 37 33 28 27 14 27 21 16 11 10 8 10 12 16 15 13 11 10 10 2 5 11 8 4 2 7 14 20 22 17
100 95 90 86 71 67 66 58 52 51 47 47 44 39 35 33 31 27 19 29 23 18 13 7 8 9 10 14 17 13 12 9 10 8 3 6 9 6 4 4 9 16 22 20
95 93 91 83 72 69 70 61 54 52 54 54 52 45 40 35 27 24 25 30 25 20 14 8 8 8 9 12 16 17 13 8 10 10 8 3 7 7 4 3 4 11 18 21
94 92 91 82 76 72 65 62 58 55 59 55 51 44 42 38 24 21 31 30 25 22 16 10 6 6 9 10 13 16 17 10 9 9 10 9 5 6 5 4 5 7 11 17
96 93 91 84 79 73 66 65 63 57 52 49 46 42 40 32 28 25 33 32 26 23 17 12 6 4 7 10 11 14 16 15 10 9 8 8 9 11 11 8 6 5 9 15
95 94 91 87 82 78 72 66 61 52 52 46 38 36 37 34 31 28 35 32 29 25 19 16 8 4 5 8 10 12 14 16 14 9 9 8 7 8 12 13 10 8 11 13
96 95 94 88 81 77 70 64 61 58 55 49 38 42 41 38 35 34 36 35 31 26 21 16 10 5 5 6 8 10 12 15 17 16 9 7 9 8 6 9 12 12 12 13
97 96 94 90 84 78 71 66 64 61 57 52 43 47 44 41 38 39 38 37 35 28 23 19 12 8 7 6 6 8 9 12 13 17 17 11 8 8 7 6 6 8 9 12
96 94 94 91 85 79 75 70 67 65 60 55 48 50 48 44 41 39 42 40 38 34 29 24 18 14 10 8 5 5 7 8 11 13 15 17 15 7 6 8 8 6 4 5
92 97 96 92 87 80 76 74 71 68 63 58 53 52 52 50 46 43 41 40 39 37 34 29 25 21 17 12 7 4 3 5 5 8 12 14 15 15 9 8 4 6 5 4

GFSCGP_250_spd_021.txt.gz
Wind_Speed
103 110 107 99 92 89 92 96 92 89 88 97 91 87 80 81 86 87 81 68 65 63 63 63 63 66 63 65 65 64 65 65 63 65 66 63 60 56 54 50 49 47 42 38
110 102 82 85 84 96 97 96 86 83 82 93 90 86 78 77 81 78 73 68 63 66 63 65 68 66 63 64 63 60 61 62 62 62 61 60 56 51 51 47 47 43 39 40
105 86 84 85 90 92 88 88 82 83 86 87 83 81 67 69 73 72 72 67 62 64 64 67 69 66 61 61 60 59 60 58 60 59 58 55 50 50 48 45 43 40 41 44
99 79 83 86 88 81 81 79 77 78 77 78 83 71 67 63 63 67 64 62 61 61 61 63 61 60 58 58 56 57 56 57 57 53 54 50 50 47 43 43 38 39 44 44
91 91 90 90 74 81 69 75 72 75 73 72 68 66 56 62 62 61 59 58 56 58 57 55 52 52 52 49 51 53 52 53 49 52 49 47 47 40 40 35 39 41 39 36
100 100 98 85 84 81 73 75 72 70 69 62 55 53 45 49 50 51 49 52 53 53 52 49 48 47 45 46 46 46 48 44 48 45 43 45 38 35 31 35 38 35 36 37
106 108 102 96 89 81 78 75 71 66 62 50 49 50 42 45 41 43 47 47 47 48 44 44 43 39 37 38 39 41 40 43 41 40 42 35 31 27 29 34 34 33 34 24
117 116 106 94 90 83 81 77 67 57 55 50 50 45 40 38 39 40 41 39 37 39 36 36 32 29 31 32 33 35 38 37 37 40 33 28 26 23 26 31 29 30 22 16
119 112 107 106 97 92 82 86 57 67 58 53 45 33 41 36 38 36 36 29 30 28 25 19 20 27 26 26 29 33 32 33 37 33 24 25 16 19 26 26 25 26 18 10
111 114 112 108 99 96 95 71 83 69 62 51 45 38 44 38 32 29 23 15 18 14 14 20 24 24 21 23 29 29 28 33 35 24 21 19 10 14 25 21 21 20 8 5
92 93 104 109 109 98 91 88 80 70 67 59 49 42 48 31 29 25 12 18 18 17 22 20 21 16 19 24 27 25 28 34 27 20 19 11 8 11 19 21 18 16 8 3
85 79 85 93 100 100 91 88 80 72 65 58 45 48 33 33 25 23 17 23 21 20 19 23 17 17 20 26 23 24 30 30 23 16 16 8 2 8 16 20 17 12 8 3
84 76 78 78 82 86 96 90 84 77 71 64 52 49 47 35 25 14 16 20 20 21 21 19 17 15 22 22 22 25 30 23 17 14 10 9 1 7 15 19 15 14 6 1
69 79 77 81 74 77 83 87 83 77 74 63 51 57 39 33 25 16 20 23 22 21 19 16 14 17 20 18 21 25 25 19 14 11 7 10 5 6 13 20 13 12 8 2
59 70 81 84 76 81 79 81 81 77 71 61 57 45 40 31 24 27 30 25 18 20 18 21 15 17 15 16 19 24 20 15 10 9 8 14 8 6 12 16 17 9 5 3
54 66 80 79 80 79 75 80 85 81 72 56 58 48 40 33 34 26 32 21 21 21 19 12 14 12 11 14 18 21 17 12 9 8 6 15 13 7 10 12 17 11 5 2
54 64 75 84 83 73 73 76 80 78 71 60 58 51 42 32 38 33 29 23 24 20 15 10 10 10 10 13 17 19 15 9 7 8 5 11 12 8 9 8 13 17 7 4
54 62 73 88 79 69 71 76 80 79 69 65 66 52 39 34 27 31 34 21 22 21 17 9 8 10 10 12 16 17 14 8 7 8 5 6 11 7 6 6 9 17 7 5
54 64 74 79 81 80 76 83 87 83 73 69 64 43 34 27 38 37 34 26 26 23 15 11 11 10 8 10 13 14 12 7 6 9 6 5 7 5 3 2 6 10 4 3
56 66 70 80 85 81 80 83 78 73 67 66 55 46 42 45 44 39 34 29 28 20 14 15 13 11 7 8 9 11 9 4 6 9 9 1 7 9 6 5 1 6 6 1
57 63 75 87 90 85 80 84 80 80 71 69 53 46 46 44 38 37 32 28 29 22 16 18 16 11 7 6 7 9 7 6 7 9 8 6 3 7 9 10 7 2 3 3
58 62 75 90 92 90 89 95 86 71 71 64 51 48 46 47 46 40 34 35 29 23 19 22 18 11 7 5 3 5 5 8 8 9 8 7 7 5 3 9 8 7 5 2
59 66 80 91 95 92 87 84 76 72 72 64 56 53 49 50 50 40 36 38 30 26 23 25 21 13 10 7 1 2 4 6 11 10 9 9 9 9 7 5 8 9 8 7
61 72 84 92 94 94 92 88 81 79 77 68 60 54 53 55 52 42 45 43 34 29 28 28 23 17 12 9 4 1 3 4 8 12 11 11 11 11 9 8 5 8 10 7
63 74 83 91 91 95 95 89 86 81 76 66 60 58 55 57 49 49 49 47 37 31 34 34 27 21 17 14 7 3 2 3 6 10 12 11 9 8 7 8 8 8 7 10
67 78 87 89 96 95 92 88 85 82 75 67 63 58 59 59 54 53 51 49 42 37 41 38 33 26 22 18 12 7 4 4 3 5 9 10 12 11 11 8 7 7 9 9

GFSCGP_250_spd_024.txt.gz
Wind_Speed
109 114 113 98 99 95 94 91 90 88 90 94 98 99 90 92 90 83 79 83 81 81 80 75 78 73 71 74 72 73 74 74 71 70 67 66 63 64 66 66 66 64 58 52
112 106 90 94 96 98 102 96 90 91 88 90 99 97 90 82 79 79 78 78 81 77 74 73 72 69 69 71 72 71 72 71 70 64 61 61 59 62 64 65 61 59 53 47
109 89 91 95 95 99 91 88 88 88 86 88 92 85 78 77 74 73 74 75 75 73 70 68 65 60 68 65 66 67 68 65 61 58 56 54 57 59 62 60 55 51 48 43
100 88 89 93 95 95 90 83 86 86 85 82 86 69 69 71 68 69 67 67 65 66 63 61 60 58 59 60 61 62 59 55 51 50 50 51 55 57 56 54 49 43 44 40
92 92 95 92 79 87 77 79 82 82 84 81 74 72 54 60 59 54 53 49 52 54 53 53 52 60 54 57 56 53 50 46 44 43 46 51 53 54 50 44 44 39 35 37
101 102 101 89 86 89 79 77 81 79 79 70 57 64 43 48 44 41 38 38 45 48 51 48 51 49 50 50 48 46 43 38 37 41 46 49 49 45 42 39 37 37 36 32
108 113 104 99 92 85 83 80 78 76 66 48 50 44 35 38 29 29 33 37 40 45 43 46 47 46 45 44 40 38 32 31 35 42 44 44 44 39 35 31 32 32 31 26
115 116 109 99 92 88 86 82 77 69 60 49 47 37 37 36 35 32 35 36 41 43 42 42 41 39 37 31 28 24 25 30 38 38 39 40 38 35 27 26 33 25 28 21
114 113 110 110 103 101 90 94 71 74 68 63 52 47 41 39 38 32 33 34 37 35 37 31 26 24 21 18 20 18 24 33 32 36 37 36 33 27 19 24 28 23 24 17
99 100 107 105 108 104 102 86 82 75 72 62 53 49 47 39 37 32 31 36 32 27 16 16 13 11 14 19 17 21 28 27 32 34 34 30 25 14 16 22 28 23 20 12
96 88 97 106 105 102 103 94 86 78 70 62 56 52 52 42 34 36 29 32 22 14 13 11 11 15 18 12 19 24 24 28 30 33 29 25 14 8 13 23 26 22 21 13
93 91 93 90 99 101 100 94 85 80 68 65 61 54 50 43 37 33 26 23 20 18 17 17 16 16 16 15 21 23 22 28 30 27 23 21 6 4 12 20 24 20 21 13
74 79 90 87 89 89 94 93 91 84 77 66 62 56 55 48 41 39 24 27 24 19 16 17 16 18 15 17 21 16 23 27 26 22 18 14 4 2 8 18 26 19 18 12
57 65 78 87 89 91 93 92 89 83 76 65 61 63 61 53 44 44 30 23 26 17 16 20 15 14 15 20 13 17 23 26 23 16 17 8 8 4 6 15 21 19 15 11
51 57 66 82 93 88 83 87 88 77 73 68 63 64 68 53 47 38 35 24 19 21 16 19 16 15 17 12 12 17 22 23 20 16 14 7 11 5 5 12 18 20 14 10
43 48 59 68 77 78 79 78 80 76 72 70 66 66 68 52 47 41 33 30 20 16 15 18 17 15 12 8 12 16 21 21 15 15 12 6 13 8 4 10 15 19 9 6
38 45 53 62 71 74 66 65 67 68 71 69 64 68 68 56 49 40 32 29 23 19 21 20 15 16 8 7 12 17 19 19 14 14 11 6 9 8 4 6 12 15 9 4
38 46 55 61 69 63 61 63 62 64 68 69 70 70 72 60 46 35 31 29 25 21 24 23 16 14 7 6 11 14 17 18 13 12 8 4 9 8 3 4 10 8 10 9
40 47 54 57 65 68 73 77 78 70 77 83 82 81 45 44 39 42 35 31 27 22 24 23 16 14 6 7 9 13 15 15 12 9 4 2 7 8 4 4 6 6 4 3
46 52 54 58 66 70 74 75 81 85 80 79 67 48 37 44 40 40 39 32 25 23 23 18 15 15 6 7 7 11 12 12 11 7 3 4 5 8 5 8 6 6 3 3
52 56 59 60 69 73 76 80 77 71 67 66 55 50 51 41 42 45 37 32 28 25 26 19 16 16 8 6 5 8 10 10 8 5 2 7 4 8 8 8 5 2 3 4
56 61 64 69 72 76 79 77 75 70 70 63 58 58 51 52 47 44 40 36 32 31 28 21 19 18 10 6 3 6 7 10 6 5 1 6 8 6 8 10 7 4 2 7
60 61 62 70 77 76 82 80 75 73 63 61 65 59 59 55 49 45 43 40 36 34 25 21 21 20 12 8 3 3 5 7 8 3 2 6 8 8 7 9 9 9 6 3
54 60 68 76 81 83 82 75 71 72 74 71 67 64 58 56 50 47 47 39 39 32 26 22 20 22 16 10 6 2 2 3 6 4 3 6 8 8 8 8 7 10 9 5
51 57 63 74 81 85 84 81 81 81 81 79 74 67 63 57 53 51 49 42 40 30 32 25 24 25 21 14 8 5 3 1 4 6 4 4 4 6 7 8 7 7 9 8
49 53 59 74 82 85 84 84 85 83 83 79 75 70 67 59 57 55 51 45 37 39 37 30 27 28 23 18 13 9 6 4 2 4 5 6 7 8 8 8 7 4 4 7

GFSCGP_250_spd_027.txt.gz
Wind_Speed
108 113 107 97 95 98 95 89 84 82 90 94 87 90 70 80 79 79 82 83 82 83 86 88 87 85 80 72 72 71 67 66 69 70 71 72 69 66 63 59 58 61 65 64
111 100 92 98 99 104 108 105 95 90 94 98 89 95 77 79 84 82 82 82 82 84 85 85 82 75 69 69 68 64 62 62 62 63 64 64 60 56 57 55 58 61 62 62
109 94 101 99 100 99 99 102 94 93 100 98 95 99 84 86 85 82 79 74 76 74 70 67 66 62 62 63 61 59 59 58 59 59 57 54 51 51 52 54 57 59 59 56
100 92 98 93 97 99 94 91 89 91 95 92 99 82 69 80 73 72 70 65 63 62 60 56 53 54 55 57 54 54 53 52 52 51 50 47 45 46 50 52 54 55 51 48
97 97 97 94 90 97 87 88 90 89 88 86 80 70 61 70 68 65 61 56 55 52 50 47 47 51 51 46 47 47 48 48 45 44 41 40 41 45 47 48 49 46 44 39
104 103 105 93 92 90 83 83 87 91 88 82 71 73 55 60 58 51 50 48 43 40 37 36 36 38 38 42 42 42 43 42 38 36 33 37 40 43 42 44 41 42 35 29
112 112 103 98 95 91 86 83 84 85 84 68 59 63 43 43 40 39 37 30 26 30 31 30 30 34 36 38 36 35 34 30 27 26 32 36 39 38 41 37 38 33 28 23
107 109 108 100 97 98 93 88 84 74 68 57 55 42 39 41 31 30 32 24 23 26 24 31 34 35 34 30 26 25 21 19 21 27 34 36 34 35 32 34 26 26 21 17
100 103 107 105 104 103 95 93 77 79 73 67 58 47 43 35 27 26 30 25 19 21 24 33 36 26 18 18 18 14 16 19 25 31 34 33 35 30 29 20 19 21 17 12
91 89 104 108 104 98 102 89 92 81 76 68 59 52 46 42 34 31 28 23 16 20 25 29 20 14 11 10 12 14 16 24 30 33 30 31 29 25 18 13 21 18 15 13
88 86 94 98 99 100 97 94 93 85 78 68 60 52 53 44 38 29 28 22 16 20 20 19 11 7 8 11 12 15 22 28 30 27 30 26 21 19 10 12 21 18 15 10
86 86 92 91 89 91 95 92 91 89 79 73 64 57 53 48 39 26 24 26 21 19 17 17 11 13 13 19 17 22 26 24 23 26 26 20 18 10 7 11 17 19 16 10
66 76 88 82 89 88 90 90 88 85 85 77 69 60 56 52 42 32 26 25 20 21 21 20 16 11 15 18 18 23 21 21 23 26 21 15 14 8 7 8 16 20 16 12
52 61 74 82 88 86 86 88 88 88 80 72 66 64 63 59 46 30 30 27 20 19 18 22 19 16 17 19 19 21 18 19 24 24 16 14 9 10 7 8 14 18 14 12
45 51 62 71 82 81 78 81 78 76 75 65 62 70 63 57 43 36 34 30 20 18 18 20 14 14 20 20 21 16 16 19 23 18 14 13 9 12 6 7 12 17 9 10
40 44 49 56 62 75 78 71 66 64 65 65 68 66 64 57 50 40 31 29 20 18 21 16 17 13 21 21 17 14 17 20 20 15 13 15 10 13 6 6 12 13 6 9
35 39 44 46 53 60 69 66 60 56 58 63 70 62 56 58 55 40 31 25 19 19 20 20 20 16 17 20 16 13 17 18 18 13 14 14 7 13 7 2 8 13 17 16
31 36 38 45 50 53 71 74 69 63 69 73 70 67 67 57 38 34 40 28 22 23 22 23 19 18 21 17 14 13 16 16 14 13 14 7 6 9 4 4 6 8 10 13
30 34 40 45 47 51 61 75 76 74 70 73 74 72 56 53 48 35 36 23 27 26 25 24 21 18 19 15 12 12 14 14 12 11 11 3 5 8 6 6 4 6 8 7
31 36 43 51 51 56 60 75 78 75 71 68 64 54 38 52 44 37 29 28 28 24 22 24 16 17 16 15 11 11 10 13 11 9 7 2 4 6 12 8 4 5 7 6
33 38 44 47 55 60 66 72 75 74 69 64 60 64 64 60 48 39 38 34 32 28 26 25 16 17 14 16 11 10 7 11 10 7 6 3 4 9 14 9 7 7 2 5
39 43 45 44 52 58 63 70 73 68 67 68 65 67 69 62 39 40 43 40 35 32 27 26 18 21 15 17 11 9 5 8 10 7 5 2 3 11 15 11 6 6 4 4
39 46 50 54 55 55 63 67 69 70 71 67 64 62 62 46 46 50 46 41 38 35 28 24 20 19 16 19 12 8 3 6 9 6 6 2 4 8 12 13 6 5 4 6
36 46 58 63 60 64 65 64 63 64 66 69 63 60 57 51 49 47 47 43 41 33 27 26 22 18 17 20 12 8 0 4 7 4 3 2 3 6 8 11 9 7 3 5
39 50 57 65 69 74 79 79 77 73 75 76 74 65 61 55 55 51 44 44 41 38 32 29 26 20 16 21 14 10 4 3 7 8 4 2 4 5 6 7 9 10 7 6
40 46 54 59 67 75 84 87 94 92 73 69 73 71 60 61 60 51 48 49 46 43 42 32 28 21 19 22 17 13 7 4 4 8 9 8 5 5 6 7 7 9 8 6

GFSCGP_250_spd_030.txt.gz
Wind_Speed
116 118 110 98 104 113 110 102 97 91 90 92 86 79 72 79 75 73 72 72 73 70 76 73 78 75 78 80 82 84 85 81 75 74 69 66 64 62 58 57 57 47 52 54
114 108 103 104 112 111 107 103 95 98 95 93 93 83 75 75 72 71 72 72 69 70 71 72 73 80 79 77 77 72 68 67 69 69 66 63 59 57 54 53 50 45 50 53
113 106 107 107 105 105 103 102 100 103 103 102 102 97 88 74 75 74 69 71 73 77 76 77 79 76 70 66 65 60 59 61 65 62 57 53 52 51 50 48 46 47 49 51
109 106 110 110 105 103 97 97 97 98 95 94 101 91 87 82 78 75 74 77 82 79 76 73 69 64 61 57 57 59 59 60 57 53 46 43 44 46 45 43 44 45 48 50
104 108 109 107 107 106 99 99 97 95 90 90 90 89 67 79 78 81 76 74 74 70 63 61 59 57 58 55 52 54 54 50 46 42 38 38 40 40 39 40 41 43 45 45
113 112 108 104 105 105 101 100 100 96 91 86 80 79 65 71 73 70 62 59 57 56 53 54 53 50 48 46 47 49 43 39 35 32 31 32 34 36 36 38 39 40 39 41
120 119 111 108 103 99 96 96 97 95 92 79 76 72 62 65 66 58 52 49 49 49 47 43 39 37 42 41 39 35 32 31 26 26 26 28 32 34 36 36 37 35 33 33
110 117 113 111 107 102 99 96 91 83 79 70 67 57 53 53 48 45 45 42 41 36 31 32 32 34 35 33 28 25 23 19 21 23 24 28 31 33 34 35 32 26 27 26
93 101 109 113 112 108 103 96 90 86 80 73 62 53 50 52 39 33 34 35 33 25 25 27 28 31 26 22 21 15 13 17 21 22 26 29 31 33 31 29 23 23 23 20
87 89 96 106 111 107 103 99 98 89 83 73 63 55 43 48 37 27 25 27 23 21 20 21 25 18 14 12 11 13 15 17 21 26 28 27 29 29 25 21 17 20 19 17
80 82 90 96 97 102 101 98 96 94 86 73 65 56 48 50 41 33 30 30 26 20 19 18 17 10 8 9 11 18 20 21 26 28 24 28 27 20 18 16 15 17 14 12
68 79 86 83 83 89 95 98 93 89 83 76 64 56 62 54 41 35 34 29 25 21 15 13 13 14 11 11 14 18 20 23 27 22 25 27 22 19 15 15 13 14 12 6
53 64 81 84 78 83 84 88 90 85 80 72 68 58 62 56 46 38 33 27 24 17 11 16 13 18 16 12 18 19 20 24 22 22 26 23 17 18 16 13 13 15 12 4
48 58 69 81 80 78 75 79 80 79 75 70 60 71 62 56 50 39 27 28 24 18 14 14 13 19 18 19 20 24 24 24 21 23 25 19 15 14 16 13 17 16 8 1
40 48 54 63 70 70 70 70 68 69 71 71 67 67 62 59 53 44 37 30 27 23 16 15 14 16 16 18 24 23 23 21 21 24 23 18 13 13 15 15 15 14 4 2
34 40 46 50 57 64 68 65 60 63 65 65 68 63 64 59 49 44 40 32 29 22 19 17 15 13 14 16 23 21 21 22 23 23 22 16 13 13 15 12 9 5 3 6
26 30 36 42 48 58 67 70 63 64 62 59 61 63 62 53 43 33 27 28 27 23 22 20 15 15 14 16 21 24 21 23 23 23 18 12 12 11 15 9 2 7 11 8
23 27 34 39 46 51 58 67 64 64 61 57 61 64 51 42 36 25 16 29 26 24 27 19 20 15 15 17 21 21 19 21 22 20 12 11 8 9 10 5 4 7 10 12
21 27 35 41 45 48 58 64 70 63 62 57 66 54 49 39 32 50 48 38 31 29 29 21 20 16 13 14 19 18 19 20 20 15 9 10 5 9 8 9 6 8 9 9
26 30 33 33 37 46 52 57 63 66 66 67 58 55 52 47 34 38 44 42 32 35 29 24 20 17 11 18 17 16 17 19 17 10 8 10 5 10 9 10 6 7 7 8
25 27 31 36 39 46 51 58 67 70 69 59 55 57 64 63 59 45 41 40 34 35 30 26 21 16 12 16 15 16 16 17 15 9 7 9 7 9 12 7 4 2 4 2
34 37 40 40 42 45 50 58 66 68 63 55 57 63 72 68 49 44 41 36 35 32 30 26 21 15 12 19 15 15 15 14 12 6 8 8 3 13 16 10 5 2 4 4
38 45 46 45 48 43 48 58 64 62 59 56 57 58 63 59 57 48 33 43 38 34 31 28 19 11 9 14 11 13 14 12 9 4 6 5 2 11 15 11 6 4 5 4
35 43 50 53 60 63 60 58 61 58 61 58 52 60 62 49 50 55 55 46 42 34 35 30 20 13 12 11 11 12 12 9 7 4 4 4 2 6 13 13 8 3 4 6
40 45 49 52 59 66 69 75 80 67 65 59 57 67 64 53 50 54 53 56 48 38 36 26 24 17 14 9 10 12 10 7 4 4 1 1 2 3 6 10 10 8 4 8
41 45 51 53 54 57 67 75 79 81 76 65 63 75 73 69 68 60 51 48 52 41 35 30 27 21 18 12 11 13 11 10 4 3 6 4 4 3 5 6 7 8 8 6

GFSCGP_250_spd_033.txt.gz
Wind_Speed
120 121 115 114 117 123 122 115 112 108 105 102 100 93 86 88 89 84 78 72 71 71 71 70 70 70 67 66 66 66 71 76 77 79 79 74 74 72 70 65 61 57 52 49
120 114 112 113 119 117 117 114 114 111 109 109 102 93 87 86 82 83 83 77 71 65 66 69 70 67 66 66 70 71 78 79 76 74 71 71 68 70 66 60 53 47 45 47
118 114 115 115 116 115 113 111 111 112 113 107 101 97 89 87 84 83 77 72 69 66 69 69 68 68 68 70 73 77 79 74 70 70 67 68 67 61 56 49 44 39 39 47
115 115 115 115 112 113 111 108 108 106 108 105 104 95 94 86 82 83 80 75 73 74 78 76 75 71 73 76 77 77 70 68 69 68 65 61 54 51 45 41 39 37 42 44
117 116 115 117 112 111 107 108 104 103 101 100 95 89 72 86 79 78 83 79 83 83 78 74 76 75 78 76 69 66 66 66 64 61 59 55 50 41 37 36 35 37 41 44
116 124 120 114 115 112 108 106 105 104 101 91 85 84 68 75 73 75 74 69 68 69 70 71 73 70 67 61 60 61 63 60 55 54 50 44 38 36 34 32 34 38 40 41
109 115 121 120 115 111 107 104 102 100 96 84 86 77 64 73 67 66 59 56 58 58 58 57 58 57 56 57 56 55 53 51 43 40 37 33 31 31 31 33 35 38 38 33
98 109 113 122 120 115 107 103 99 96 90 86 85 66 66 66 65 62 57 57 57 56 54 54 53 53 49 47 46 47 46 36 33 30 29 27 29 30 33 33 35 35 29 29
89 97 104 111 120 119 113 106 98 95 89 83 74 65 59 60 59 56 54 53 51 49 46 47 42 41 39 40 41 40 31 27 26 24 23 26 29 32 32 34 32 26 23 28
84 86 94 101 109 113 116 111 106 95 87 75 66 58 49 53 45 43 40 37 35 36 38 33 31 33 35 37 31 22 19 15 17 21 24 29 28 30 33 31 25 18 22 26
71 81 86 93 96 102 107 112 111 103 91 76 65 53 48 49 47 37 31 30 30 33 28 24 27 25 29 24 18 15 12 18 22 22 28 27 27 30 29 25 20 15 20 25
56 75 83 85 87 92 98 102 104 102 93 81 66 57 56 56 50 39 33 33 32 28 25 25 21 24 23 22 18 16 14 21 22 25 29 26 27 28 23 21 14 15 20 25
47 61 73 79 80 81 83 89 92 93 92 84 73 62 62 64 52 45 40 35 35 30 26 23 23 26 22 21 17 17 16 23 26 29 26 27 26 24 21 17 11 16 21 25
44 53 64 72 75 74 70 74 77 82 85 84 74 67 70 69 57 47 39 38 35 31 26 22 18 16 20 19 17 19 20 25 25 26 24 27 26 22 20 12 13 17 23 22
37 43 52 61 63 65 69 66 64 64 72 77 75 66 76 68 62 50 44 40 36 34 28 21 15 15 19 20 18 16 20 23 26 24 25 26 24 20 17 11 11 18 23 14
30 37 43 49 53 58 66 65 62 58 60 65 71 71 73 70 64 53 46 41 35 31 31 24 18 20 20 19 14 15 19 24 26 22 24 25 22 18 12 10 10 15 13 10
26 31 37 38 41 48 56 60 57 56 58 60 68 72 71 65 61 56 50 44 40 33 31 25 24 19 23 19 13 14 20 25 21 23 25 24 19 15 8 10 11 9 6 8
22 28 32 34 38 47 56 61 61 59 61 65 67 71 67 61 56 55 51 46 42 36 33 29 26 19 22 18 14 16 19 23 22 23 25 18 12 7 6 8 9 8 3 4
20 24 27 31 38 44 51 59 63 64 63 65 65 66 63 62 56 54 50 44 37 37 31 27 23 22 21 16 10 16 18 20 21 22 22 12 10 4 6 6 7 7 5 2
17 20 21 24 29 37 45 58 65 69 67 66 66 60 60 59 56 49 44 41 35 33 25 21 24 21 19 10 11 16 18 18 20 21 18 10 9 7 7 7 6 5 2 3
19 23 26 28 32 36 43 57 67 66 68 66 57 56 55 53 54 50 43 39 34 35 22 22 25 22 19 10 10 15 19 15 19 21 14 7 8 9 8 10 7 5 3 6
24 28 31 33 34 37 45 57 64 67 66 59 54 51 61 63 59 51 47 40 35 33 34 28 24 22 19 14 9 16 13 14 19 19 11 5 7 9 10 11 6 2 4 2
27 30 34 37 39 41 48 57 65 65 59 55 54 64 69 63 66 52 43 40 42 42 40 27 27 24 18 11 6 10 9 12 16 15 6 3 6 7 10 11 5 4 6 4
29 33 34 35 37 46 52 61 64 55 57 52 64 79 78 70 55 55 47 37 50 39 33 31 26 25 18 3 6 6 7 11 14 13 5 4 5 2 9 11 6 3 5 1
29 32 35 40 45 49 57 63 66 64 56 58 71 76 70 68 63 59 45 41 40 36 33 29 30 23 21 6 2 3 5 8 11 13 8 4 5 4 2 8 7 4 3 3
32 34 38 45 52 58 65 70 68 67 59 66 76 80 73 68 65 55 55 48 40 35 38 34 32 27 18 12 7 3 4 5 7 9 8 2 4 5 2 4 5 6 6 6

GFSCGP_250_spd_036.txt.gz
Wind_Speed
123 123 117 121 123 124 127 121 118 115 115 114 107 97 94 94 91 92 92 91 90 87 83 80 72 71 70 69 67 65 62 63 63 65 70 78 79 79 78 78 78 75 63 56
126 122 121 122 124 124 127 125 122 121 117 115 114 105 102 97 93 90 86 85 81 78 73 72 73 74 73 71 68 62 62 65 68 72 76 80 78 77 76 77 70 62 57 52
125 121 123 125 125 124 123 123 127 121 120 118 114 106 101 99 95 91 87 87 86 79 77 77 78 75 73 69 65 69 72 73 71 75 78 77 71 72 73 65 61 57 50 44
127 121 120 123 124 124 122 121 119 121 120 116 117 108 103 99 95 94 93 88 82 82 84 81 77 73 70 69 70 74 72 70 71 75 76 68 70 70 60 58 55 49 39 37
118 120 127 125 119 121 119 120 118 116 113 111 105 102 87 91 86 85 86 85 84 83 78 76 72 70 70 71 74 72 68 69 70 66 66 68 65 58 52 52 46 37 35 40
106 111 124 127 123 118 115 117 116 115 110 103 95 96 75 82 82 84 80 78 79 77 72 70 70 70 72 72 68 66 63 62 59 61 63 60 50 50 49 42 33 35 39 40
95 105 113 118 122 121 116 111 110 108 103 90 92 88 69 77 78 76 75 73 70 65 64 65 65 63 62 60 58 57 55 55 59 56 52 46 50 47 37 31 35 37 37 38
81 98 100 103 110 116 117 115 108 104 96 89 90 76 70 73 73 71 73 68 62 57 57 57 55 54 53 56 54 52 52 53 51 49 46 46 41 30 30 33 33 36 37 32
70 82 93 92 98 107 111 110 108 108 98 90 78 69 68 67 70 74 69 63 55 52 53 52 51 49 50 48 48 47 44 43 43 40 36 32 27 29 33 31 33 36 29 26
61 65 78 87 90 98 102 105 107 104 98 89 77 68 63 62 65 62 57 53 50 51 46 46 46 44 41 41 39 36 39 39 31 26 29 27 27 33 31 31 35 29 26 20
50 57 67 77 87 90 89 95 98 98 95 90 81 70 64 59 57 51 48 46 44 41 38 36 37 34 31 30 32 35 34 25 16 24 23 25 29 32 31 34 29 24 20 17
43 50 58 65 75 78 77 84 88 90 89 87 83 74 65 58 54 48 42 39 36 30 32 33 30 27 27 29 32 29 23 19 19 20 23 26 30 28 32 30 25 23 15 17
35 41 51 55 63 68 71 75 78 81 84 79 80 72 67 62 59 48 39 34 30 28 30 28 26 27 25 27 30 27 21 24 20 22 22 28 26 29 28 24 23 16 14 19
26 37 45 50 52 61 67 67 68 72 73 74 72 73 68 66 61 50 41 36 30 28 29 27 26 25 24 29 30 24 21 21 20 20 25 27 25 26 23 21 18 12 14 21
23 31 40 46 48 51 58 62 61 60 68 68 71 73 73 70 65 53 45 38 33 34 32 28 27 23 25 29 27 24 20 17 19 21 25 22 24 23 20 19 13 7 13 18
20 26 33 38 38 43 51 59 56 55 61 66 64 72 77 74 70 58 50 42 39 38 33 31 25 23 20 20 23 21 16 17 19 24 21 22 22 19 18 18 9 7 13 16
17 21 25 30 37 41 48 55 59 59 59 63 64 74 79 75 72 64 54 46 44 38 36 31 28 22 18 18 19 18 19 18 20 23 21 22 22 18 14 10 7 7 9 12
14 15 17 25 32 38 45 54 62 60 62 63 70 81 80 77 73 65 57 51 47 41 36 34 29 22 21 19 17 16 15 15 18 20 20 21 18 12 5 5 4 6 9 11
10 12 15 23 30 34 39 47 59 65 63 61 66 82 80 77 71 65 59 56 50 44 40 32 26 25 22 22 18 15 13 14 18 17 19 19 15 8 2 2 3 5 7 9
12 16 20 24 27 32 35 48 64 71 69 69 72 78 81 77 69 63 59 57 51 45 43 35 26 25 24 21 21 17 10 14 15 17 19 18 13 7 2 4 3 2 3 5
13 18 21 24 28 31 38 47 63 70 70 71 74 74 76 65 70 62 59 57 51 48 43 34 29 25 21 20 18 15 9 13 13 16 18 15 11 6 3 5 5 3 3 3
18 22 22 25 28 32 40 50 63 70 73 73 71 59 62 70 68 61 59 57 54 48 38 32 27 24 17 19 19 13 9 8 11 15 15 12 9 5 3 6 5 2 1 2
21 24 26 27 31 36 44 56 65 66 67 67 54 60 67 68 62 60 57 55 49 43 42 28 23 18 16 19 21 15 7 5 8 13 11 9 8 2 5 6 6 4 2 4
17 21 25 28 32 36 44 53 61 64 58 54 56 62 68 67 63 56 53 52 39 39 37 26 21 16 17 21 16 11 5 2 6 12 9 7 7 1 6 8 6 2 2 3
18 22 27 31 37 43 52 58 58 55 55 56 57 65 69 67 62 58 54 49 46 40 29 26 24 20 22 21 13 9 5 1 4 10 9 4 4 1 6 7 5 2 3 4
21 24 29 39 47 57 68 68 63 60 62 62 62 66 71 70 65 63 57 52 44 35 30 29 26 26 30 22 14 7 6 2 3 7 8 4 2 1 6 8 6 6 3 6

GFSCGP_250_spd_042.txt.gz
Wind_Speed
108 109 116 118 122 121 126 122 114 111 111 114 102 93 96 102 101 99 98 98 97 92 92 93 91 92 90 88 85 81 83 70 64 65 70 71 73 71 72 74 74 70 67 65
105 110 117 118 119 121 126 131 125 122 118 120 111 101 100 100 96 94 94 91 91 94 95 95 97 95 93 92 88 82 70 66 67 69 72 74 74 75 72 72 69 65 62 61
103 107 114 116 122 121 122 125 126 127 132 131 128 111 103 102 96 91 90 94 92 94 95 93 92 89 85 78 70 66 67 67 70 75 75 73 74 72 71 66 64 60 60 62
100 110 116 118 119 120 123 123 124 124 126 118 123 112 120 110 104 99 97 94 96 98 94 92 87 83 75 72 70 67 71 72 72 74 73 69 66 65 62 62 58 58 59 55
92 102 109 114 119 123 120 121 122 123 122 118 117 115 109 114 107 107 108 107 107 104 97 91 91 87 81 81 78 77 75 77 74 70 66 63 61 59 59 55 56 57 52 51
85 95 100 105 110 115 117 121 121 119 116 120 111 110 100 106 104 105 103 103 102 104 101 95 92 86 87 85 80 80 75 72 69 62 61 57 56 54 54 55 54 48 47 39
76 80 85 93 99 102 103 107 112 112 112 106 101 108 96 97 100 100 100 97 95 90 91 86 84 86 87 78 76 72 70 66 61 58 54 52 51 51 53 52 44 44 38 36
65 67 74 77 82 88 92 96 95 97 99 100 104 103 87 90 93 95 96 94 89 85 80 73 73 71 71 70 69 66 62 62 56 52 48 49 49 50 47 40 40 38 36 37
52 55 59 61 66 71 75 78 84 88 87 91 89 97 95 94 89 87 88 86 84 79 72 70 68 63 62 63 59 58 56 53 50 46 45 46 48 42 36 34 35 34 35 37
42 44 47 49 54 60 62 63 67 75 80 77 80 84 85 91 91 91 80 72 70 67 69 70 65 60 58 56 53 52 50 47 44 43 44 45 35 32 31 32 33 33 34 33
34 37 40 40 42 45 54 56 59 66 68 70 77 73 87 88 88 86 77 66 60 58 59 60 59 57 55 53 50 49 46 42 40 42 41 33 29 27 28 33 32 34 32 34
26 30 32 32 34 39 45 48 54 58 61 63 72 76 79 82 87 80 73 64 59 53 52 51 51 51 51 47 46 45 41 40 40 38 29 26 27 28 32 32 34 32 32 33
22 24 26 29 32 33 40 44 48 53 56 57 62 68 74 81 82 74 65 63 60 50 46 46 45 45 41 42 42 38 37 37 33 25 24 25 27 31 27 32 30 30 31 30
19 19 22 25 28 29 36 40 43 48 50 56 62 75 79 78 77 69 62 61 56 48 43 42 39 38 36 36 35 33 34 29 21 21 23 23 26 25 28 31 29 31 28 24
15 17 18 20 24 27 31 36 41 45 49 55 66 71 72 70 72 64 60 59 56 47 40 38 35 34 35 31 33 32 28 18 19 20 18 20 22 26 30 29 29 29 23 20
12 13 13 16 19 23 29 33 39 44 47 55 64 68 67 61 67 64 62 60 56 46 41 36 31 34 32 33 29 26 22 18 19 17 16 19 25 25 27 29 26 22 19 14
8 8 10 13 17 21 25 29 33 39 51 56 61 64 59 62 64 63 62 60 55 46 40 34 36 34 34 28 27 24 19 18 17 17 17 20 22 25 28 25 19 14 10 10
6 6 8 10 14 17 23 30 36 43 52 58 59 55 58 62 63 63 61 58 53 46 40 39 39 37 32 31 26 21 18 15 15 12 12 16 21 23 26 19 14 7 7 5
5 6 8 10 12 17 24 31 41 50 56 60 59 59 62 65 63 63 61 57 52 46 41 40 38 35 36 32 26 23 18 14 16 10 11 18 20 24 23 14 9 6 6 4
4 5 8 10 14 22 30 36 43 51 57 60 57 57 63 65 68 66 62 58 54 47 45 43 42 40 37 31 28 23 18 14 15 12 14 19 20 23 18 12 9 9 8 3
5 3 6 10 16 24 31 38 47 55 60 60 58 61 66 67 69 67 65 62 56 50 47 44 43 38 33 31 28 22 17 14 13 11 15 18 21 18 14 12 12 10 6 4
4 5 8 11 13 18 28 35 48 55 61 65 63 66 72 70 69 69 68 64 59 55 50 46 43 39 35 31 27 21 18 15 11 11 16 17 18 15 14 12 14 11 6 3
4 6 7 10 14 18 26 34 45 54 62 68 67 70 69 72 70 70 69 64 61 55 50 46 42 37 32 30 26 20 17 18 12 12 14 16 15 13 10 11 15 12 9 4
2 5 9 13 15 21 29 36 47 54 63 67 67 69 71 74 73 72 71 66 61 58 54 47 41 37 31 28 24 21 18 18 12 11 12 15 12 11 8 14 14 10 8 7
3 7 11 15 19 24 32 39 51 58 65 65 67 68 71 73 71 72 70 66 62 57 50 44 39 34 31 27 20 18 18 18 13 10 11 13 9 9 8 15 15 12 10 10
3 5 10 17 22 28 35 44 54 61 59 62 66 69 72 75 76 71 67 64 59 54 43 40 39 34 32 25 22 18 15 15 12 9 10 9 6 8 10 16 20 13 9 10

GFSCGP_250_spd_045.txt.gz
Wind_Speed
101 106 108 111 111 107 112 114 108 106 108 119 112 107 100 100 96 97 101 99 100 101 98 96 91 86 87 90 90 85 85 81 79 77 80 82 87 83 74 74 75 77 79 74
92 100 107 113 114 113 113 116 113 116 116 123 113 106 98 105 106 103 102 100 95 91 93 96 97 90 88 89 86 83 83 84 81 83 85 87 80 69 68 73 77 78 73 73
94 97 101 105 110 117 118 118 118 118 125 129 120 112 105 101 104 103 101 98 93 86 85 86 86 87 90 93 90 89 84 82 82 86 83 72 68 69 72 76 77 74 69 68
88 96 103 106 107 112 118 123 124 123 125 121 124 123 118 112 104 108 103 101 94 89 86 87 84 83 83 82 83 80 76 75 76 74 70 70 72 71 76 75 72 68 66 62
85 92 99 103 106 112 111 117 123 126 127 126 125 119 109 113 112 113 108 107 104 96 92 90 91 86 81 72 71 72 74 75 79 75 75 79 78 73 76 74 67 66 61 57
84 90 94 102 104 107 112 114 118 119 121 127 121 124 110 112 111 111 110 113 107 100 100 95 93 88 80 79 78 79 81 80 78 75 78 79 78 72 73 65 64 59 55 55
80 85 88 94 95 102 106 107 112 115 116 107 109 116 111 107 110 110 111 109 110 108 107 108 98 92 89 89 85 82 84 85 81 82 78 73 71 68 61 59 58 53 53 50
67 71 79 81 82 85 93 97 101 105 105 105 108 103 97 99 107 107 102 100 99 98 100 97 88 86 88 88 84 77 75 72 70 67 64 64 62 58 54 53 50 50 48 42
55 60 63 67 70 75 79 84 88 90 92 97 97 93 92 91 97 98 96 99 100 97 91 87 83 80 82 78 72 68 63 60 59 57 56 55 52 51 51 48 47 45 40 36
45 50 50 56 59 64 66 74 74 77 80 85 89 87 83 85 81 95 99 97 88 87 87 81 77 75 74 72 68 63 59 56 54 51 49 48 46 47 46 46 42 38 34 36
39 39 41 44 46 50 52 58 62 64 67 74 77 73 83 75 79 87 98 90 83 77 71 74 72 71 69 69 66 61 56 51 48 46 46 46 44 44 44 39 37 35 33 36
34 33 34 34 38 44 47 50 51 55 63 63 63 64 67 64 68 86 79 81 80 73 69 65 66 69 67 65 60 55 52 48 45 44 42 41 43 42 36 34 35 30 31 37
28 27 27 29 34 38 40 43 45 51 51 49 53 56 62 62 65 72 73 77 74 71 65 60 57 54 53 55 52 49 47 43 42 38 37 40 38 34 32 33 30 29 35 37
21 20 20 24 30 28 25 31 37 42 44 48 55 63 68 63 75 76 76 74 75 69 62 56 48 45 43 43 42 41 39 36 34 34 36 33 29 28 29 27 27 31 37 36
19 17 17 19 22 20 24 29 29 33 38 41 52 60 63 65 74 73 68 73 72 65 59 54 44 35 34 32 31 33 31 31 32 34 29 27 25 25 23 25 29 34 34 34
17 15 13 14 17 16 19 22 23 28 33 39 47 54 47 55 62 58 63 67 65 58 55 48 40 31 29 29 30 28 29 30 33 28 25 23 21 22 22 26 29 31 31 27
14 13 10 9 13 15 15 20 25 30 32 41 44 48 49 52 56 63 63 64 59 56 52 47 36 34 31 28 27 29 29 30 26 23 20 20 21 18 21 24 25 25 23 17
14 11 9 5 8 13 17 20 26 32 40 44 47 50 51 59 57 61 64 64 60 55 49 45 37 35 32 32 33 32 29 25 23 18 18 18 15 17 20 19 21 20 15 8
14 11 7 3 9 13 18 22 26 34 40 49 49 54 60 64 63 64 66 62 58 54 51 44 38 36 35 34 33 31 29 24 19 18 20 16 15 17 17 19 17 15 11 10
11 8 6 3 9 14 18 23 28 33 39 42 50 54 60 65 66 70 71 65 58 53 45 43 41 40 37 34 35 33 25 21 18 22 20 16 13 15 17 15 13 12 13 11
11 8 4 3 6 13 17 23 29 35 39 43 50 61 71 74 71 67 68 64 60 54 44 42 41 41 39 38 35 28 24 21 19 18 18 14 15 15 15 13 12 12 9 10
10 10 5 2 6 12 17 24 31 34 43 53 57 64 67 66 68 68 67 65 61 51 49 47 46 42 40 39 33 29 25 21 21 15 14 12 13 15 13 12 11 10 8 8
10 9 6 0 8 13 19 25 32 40 53 58 65 68 69 74 75 74 68 65 57 48 50 47 45 43 43 38 32 29 23 22 20 17 12 12 13 14 11 10 6 6 7 4
7 7 6 5 12 16 21 27 35 48 59 63 66 68 73 76 75 73 72 65 44 51 50 48 45 43 42 36 33 27 22 21 19 15 13 13 12 12 8 5 8 11 10 8
6 7 5 6 12 18 23 30 42 57 63 62 67 72 77 78 77 76 72 56 52 54 47 47 46 43 39 33 29 25 22 20 17 14 15 14 12 11 6 9 16 15 14 12
6 7 7 5 10 17 26 37 51 64 64 64 72 77 77 77 79 76 66 58 58 56 49 50 47 41 37 31 25 22 21 20 15 13 14 13 12 10 8 14 22 23 20 18

GFSCGP_250_spd_048.txt.gz
Wind_Speed
95 97 101 101 103 103 107 112 109 108 110 124 127 115 95 105 101 91 98 105 107 110 107 102 94 94 89 83 79 77 77 70 67 67 69 74 85 88 82 76 81 79 79 77
83 95 101 104 106 107 108 109 108 112 118 123 118 116 109 104 107 108 105 102 98 97 101 106 104 105 97 90 86 83 82 84 85 84 83 82 82 82 78 77 74 75 76 75
78 83 89 97 104 111 112 114 113 115 116 123 119 120 114 111 114 110 105 102 109 108 99 95 92 89 90 89 81 76 83 89 87 85 79 77 82 79 76 72 71 74 75 74
72 80 86 92 95 104 111 117 119 120 121 119 120 119 114 110 107 108 108 107 107 105 105 104 96 91 84 84 82 76 74 72 73 72 72 72 73 71 67 68 69 73 73 77
67 74 80 84 92 102 104 110 117 122 122 123 123 124 109 111 106 109 111 112 109 108 109 105 104 98 94 93 83 67 65 64 62 69 68 69 64 64 67 73 74 75 78 72
66 72 78 80 87 96 102 108 113 114 116 121 116 125 117 113 111 109 111 116 114 111 111 106 97 95 91 87 78 68 67 67 68 67 69 67 66 71 71 74 73 71 67 66
69 75 82 82 86 97 98 100 104 109 112 109 110 121 113 110 115 114 115 117 118 117 112 108 101 94 93 88 83 78 74 71 73 69 70 73 73 73 72 67 62 61 61 61
70 72 83 81 82 87 88 90 93 101 104 102 106 109 102 92 100 109 114 115 118 117 110 110 106 105 100 91 88 89 78 78 76 75 76 74 73 73 61 56 55 56 56 55
67 67 75 71 70 73 78 78 81 86 91 92 93 93 90 89 96 100 105 109 118 110 108 104 104 104 96 89 85 83 83 82 78 78 72 69 67 59 52 51 52 52 52 51
63 60 68 56 55 60 66 67 68 70 76 75 76 78 78 86 84 89 99 104 100 103 102 101 100 100 93 87 83 78 79 76 71 66 64 59 56 50 49 47 48 50 49 49
51 51 52 42 46 49 51 55 59 65 70 63 61 62 76 75 74 77 82 88 98 93 89 91 91 91 88 83 79 74 70 67 62 60 56 53 50 48 46 46 46 46 47 46
43 41 39 36 39 40 43 46 49 54 57 54 51 59 58 62 67 66 76 87 83 77 82 78 76 78 79 79 73 68 63 58 56 53 51 49 47 44 44 45 45 43 42 40
39 34 33 33 34 35 36 37 38 42 44 46 45 49 51 57 62 66 70 66 68 57 66 74 72 71 70 65 62 60 59 55 51 50 48 44 41 43 46 45 42 40 39 38
34 29 27 27 30 27 27 28 28 29 37 40 40 44 49 55 56 52 52 59 55 63 64 66 64 61 58 54 50 50 48 47 46 46 44 42 42 44 44 41 37 37 36 34
29 24 19 19 21 20 20 20 22 29 34 33 36 43 42 47 51 46 46 42 46 62 62 57 49 47 50 43 38 34 37 38 39 38 37 39 40 39 36 32 34 34 32 31
21 18 16 14 14 15 16 16 23 26 31 31 35 41 44 50 48 34 37 43 56 59 52 48 48 41 42 34 28 30 33 32 33 33 36 37 34 30 28 30 30 28 28 30
17 15 14 13 13 10 11 14 22 28 33 28 34 39 45 36 21 31 45 52 54 54 50 49 46 36 31 29 31 30 33 32 32 33 33 28 24 25 26 24 23 25 27 27
15 11 12 11 11 11 11 13 21 25 29 31 34 35 29 24 25 36 50 50 52 51 52 51 48 36 29 36 33 34 31 30 31 30 24 22 23 22 19 20 22 24 22 14
12 11 11 9 11 9 11 11 21 25 31 28 29 29 32 36 36 45 51 49 46 50 54 55 49 45 42 38 36 33 32 31 28 21 21 21 21 17 16 20 20 20 12 6
10 12 13 9 9 9 9 13 20 26 28 31 31 32 43 49 52 50 52 59 61 60 57 54 42 36 36 37 32 31 30 27 22 21 20 18 15 13 16 19 19 15 6 9
8 14 14 10 7 7 8 11 17 27 30 31 35 44 49 50 48 51 53 59 58 62 60 44 29 32 33 33 33 31 29 26 24 20 18 12 13 15 18 17 15 11 5 10
9 11 13 11 9 6 7 10 15 23 28 31 41 47 51 58 60 58 63 67 68 69 51 37 26 22 29 32 31 30 29 26 22 18 10 11 13 16 15 18 13 6 5 7
8 9 10 12 10 6 6 10 15 20 28 38 43 49 62 68 67 68 72 75 74 59 52 42 41 33 32 34 32 31 29 24 20 15 8 12 13 13 15 13 7 6 8 8
8 8 12 11 8 7 7 10 15 23 33 42 48 54 66 73 75 80 81 77 71 59 48 34 33 34 42 38 33 33 27 23 18 15 14 15 14 12 12 2 4 6 6 5
6 6 8 9 6 4 6 13 24 33 43 52 58 63 64 79 85 85 76 68 61 59 48 46 34 52 44 39 37 31 26 22 19 13 14 15 11 11 6 8 12 13 12 11
4 7 8 7 4 3 12 21 32 45 54 59 65 67 79 84 87 75 73 61 49 52 52 50 48 38 37 37 35 30 26 23 16 14 14 12 10 11 8 9 16 20 19 18